Location: NCO
(38.4404°N, 77.1340°W)
Time: 05:36:26
(UTC-05:00)

Tiangong 2 - Visible Passes

Search period start: 20 January 2018 00:00
Search period end: 30 January 2018 00:00
Orbit: 384 x 390 km, 42.8° (Epoch: 18 January)

Date Brightness Start Highest point End Pass type
(mag) Time Alt. Az. Time Alt. Az. Time Alt. Az.
20 Jan 4.3 04:52:38 14° E 04:52:38 14° E 04:53:14 10° E visible
20 Jan 1.5 06:24:55 18° W 06:27:00 49° NNW 06:30:08 10° ENE visible
21 Jan 2.2 05:29:09 42° NE 05:29:09 42° NE 05:31:25 10° ENE visible
22 Jan 1.8 06:05:33 30° NW 06:06:28 38° N 06:09:30 10° ENE visible
23 Jan 3.6 05:09:36 19° NE 05:09:36 19° NE 05:10:45 10° ENE visible
23 Jan 2.0 06:41:53 11° WNW 06:44:47 36° N 06:47:48 10° ENE visible
24 Jan 2.0 05:45:53 35° N 05:45:55 35° N 05:48:54 10° ENE visible
25 Jan 4.5 04:49:52 11° ENE 04:49:52 11° ENE 04:50:04 10° ENE visible
25 Jan 1.8 06:22:07 18° NW 06:24:13 43° N 06:27:18 10° E visible
26 Jan 2.6 05:26:05 31° NE 05:26:05 31° NE 05:28:21 10° ENE visible
27 Jan 1.3 06:02:19 32° NW 06:03:34 60° NNE 06:06:44 10° E visible
28 Jan 3.5 05:06:19 23° ENE 05:06:19 23° ENE 05:07:48 10° E visible
28 Jan 1.6 06:38:35 11° WNW 06:41:35 49° SSW 06:44:40 10° SE visible
29 Jan 0.9 05:42:37 75° W 05:42:50 85° SSW 05:46:01 10° ESE visible
